Station Historical Data
Daily Summary for October 4, 2017 Units:  Metric    English   Both
« Previous Day
Next Day »
Daily Weekly Monthly Yearly Custom
  High: Low: Average:
Temperature: 25.2 °C 16.4 °C 20.2 °C
Dew Point: 18.6 °C 10.8 °C 14.9 °C
Humidity: 87% 58% 72%
Wind Speed: 30.6km/h 0km/h 8.2km/h
Wind Gust: 43.5km/h - -
Wind- - WSW
Pressure: 1028 hPa 1018.8 hPa -
Precipitation: 0 mm    
Historical Graphs
 
 
Tabular Data for October 4, 2017
Time Temperature Dew Point Pressure Wind Wind Speed Wind Gust Humidity Rainfall Rate (Hourly)
00:09 18.3 °C 11.8 °C 1027.7 hPa SSE 1.6 km/h 9.7 km/h 66% 0 mm
00:14 18.2 °C 11.7 °C 1028 hPa South 3.2 km/h 9.7 km/h 66% 0 mm
00:19 18.2 °C 11.7 °C 1028 hPa South 3.2 km/h 11.3 km/h 66% 0 mm
00:24 18.2 °C 11.7 °C 1028 hPa SSW 3.2 km/h 12.9 km/h 66% 0 mm
00:29 18.1 °C 11.6 °C 1028 hPa SSW 6.4 km/h 9.7 km/h 66% 0 mm
00:34 18.1 °C 11.6 °C 1028 hPa SSE 3.2 km/h 8 km/h 66% 0 mm
00:39 18.1 °C 11.6 °C 1028 hPa SSW 1.6 km/h 11.3 km/h 66% 0 mm
00:44 18.1 °C 11.7 °C 1028 hPa South 4.8 km/h 12.9 km/h 66% 0 mm
00:49 18.3 °C 11.8 °C 1028 hPa SSW 4.8 km/h 12.9 km/h 66% 0 mm
00:54 18.3 °C 11.6 °C 1027.7 hPa SSW 4.8 km/h 11.3 km/h 65% 0 mm
00:59 18.3 °C 11.8 °C 1027.7 hPa SSW 4.8 km/h 17.7 km/h 66% 0 mm
01:04 18.3 °C 11.6 °C 1027.7 hPa SSW 4.8 km/h 17.7 km/h 65% 0 mm
01:09 18.4 °C 11.7 °C 1027.7 hPa SSW 6.4 km/h 16.1 km/h 65% 0 mm
01:14 18.3 °C 11.6 °C 1027.7 hPa SSW 6.4 km/h 16.1 km/h 65% 0 mm
01:19 18.3 °C 11.8 °C 1027.7 hPa South 3.2 km/h 12.9 km/h 66% 0 mm
01:24 18.2 °C 11.8 °C 1027.7 hPa South 1.6 km/h 8 km/h 66% 0 mm
01:29 18.2 °C 11.8 °C 1027.7 hPa SSW 1.6 km/h 9.7 km/h 66% 0 mm
01:34 18.1 °C 11.7 °C 1027.7 hPa SSE 3.2 km/h 6.4 km/h 66% 0 mm
01:39 18.1 °C 11.6 °C 1027.7 hPa West 1.6 km/h 8 km/h 66% 0 mm
01:44 18.1 °C 11.7 °C 1027.7 hPa SSW 3.2 km/h 9.7 km/h 66% 0 mm
01:49 18.1 °C 11.6 °C 1027.7 hPa SSW 3.2 km/h 11.3 km/h 66% 0 mm
01:54 18.1 °C 11.6 °C 1027.7 hPa SSW 3.2 km/h 11.3 km/h 66% 0 mm
01:59 18.1 °C 11.6 °C 1027.7 hPa SSW 4.8 km/h 11.3 km/h 66% 0 mm
02:04 18.1 °C 11.6 °C 1027.7 hPa SSW 3.2 km/h 9.7 km/h 66% 0 mm
02:09 18.1 °C 11.4 °C 1027.7 hPa South 1.6 km/h 14.5 km/h 65% 0 mm
02:14 18 °C 11.6 °C 1027.7 hPa SSW 3.2 km/h 14.5 km/h 66% 0 mm
02:19 17.9 °C 11.4 °C 1027.7 hPa SSW 3.2 km/h 8 km/h 66% 0 mm
02:24 17.8 °C 11.3 °C 1027.7 hPa SSW 3.2 km/h 6.4 km/h 66% 0 mm
02:29 17.7 °C 11.3 °C 1027.7 hPa SSW 1.6 km/h 6.4 km/h 66% 0 mm
02:34 17.6 °C 11.2 °C 1027.3 hPa SSW 3.2 km/h 8 km/h 66% 0 mm
02:39 17.4 °C 11.2 °C 1027.3 hPa Calm   6.4 km/h 67% 0 mm
02:44 17.4 °C 11.2 °C 1027.3 hPa SSW 3.2 km/h 11.3 km/h 67% 0 mm
02:49 17.4 °C 11.2 °C 1027 hPa SSW 3.2 km/h 11.3 km/h 67% 0 mm
02:54 17.4 °C 11.2 °C 1027 hPa SSW 3.2 km/h 6.4 km/h 67% 0 mm
02:59 17.3 °C 11.2 °C 1027 hPa SSW 3.2 km/h 9.7 km/h 67% 0 mm
03:04 17.3 °C 11.2 °C 1027 hPa SSW 4.8 km/h 6.4 km/h 67% 0 mm
03:09 17.2 °C 11.3 °C 1027 hPa Calm   6.4 km/h 68% 0 mm
03:14 17.2 °C 11.2 °C 1027 hPa Calm   4.8 km/h 68% 0 mm
03:19 17.2 °C 11.3 °C 1027 hPa SSW 1.6 km/h 4.8 km/h 68% 0 mm
03:24 17.3 °C 11.3 °C 1027 hPa SSW 1.6 km/h 4.8 km/h 68% 0 mm
03:29 17.2 °C 11.2 °C 1027 hPa Calm   3.2 km/h 68% 0 mm
03:34 17.1 °C 11.1 °C 1026.6 hPa Calm   3.2 km/h 68% 0 mm
03:39 16.9 °C 11 °C 1026.6 hPa Calm   3.2 km/h 68% 0 mm
03:44 16.8 °C 11.1 °C 1026.6 hPa Calm     69% 0 mm
03:49 16.7 °C 10.9 °C 1026.6 hPa Calm   3.2 km/h 69% 0 mm
03:54 16.7 °C 11 °C 1026.6 hPa Calm   6.4 km/h 69% 0 mm
03:59 16.8 °C 11.1 °C 1026.6 hPa Calm   6.4 km/h 69% 0 mm
04:04 16.9 °C 10.9 °C 1026.6 hPa Calm   4.8 km/h 68% 0 mm
04:09 17.1 °C 11.1 °C 1026.6 hPa Calm     68% 0 mm
04:14 16.9 °C 11 °C 1026.6 hPa Calm     68% 0 mm
04:19 16.8 °C 10.9 °C 1026.6 hPa Calm     68% 0 mm
04:24 16.8 °C 10.9 °C 1026.6 hPa Calm     68% 0 mm
04:29 16.7 °C 10.8 °C 1026.6 hPa Calm     68% 0 mm
04:34 16.7 °C 10.9 °C 1026.3 hPa Calm     69% 0 mm
04:39 16.6 °C 10.9 °C 1026.3 hPa Calm     69% 0 mm
04:44 16.6 °C 10.9 °C 1026.3 hPa Calm     69% 0 mm
04:49 16.6 °C 10.8 °C 1026.3 hPa Calm     69% 0 mm
04:54 16.4 °C 10.9 °C 1026.3 hPa Calm     70% 0 mm
04:59 16.4 °C 10.9 °C 1026.3 hPa Calm     70% 0 mm
05:04 16.4 °C 10.9 °C 1026.3 hPa Calm     70% 0 mm
05:09 16.4 °C 10.9 °C 1026.3 hPa SSW 3.2 km/h 6.4 km/h 70% 0 mm
05:14 16.6 °C 11.1 °C 1026.3 hPa Calm   4.8 km/h 70% 0 mm
05:19 16.6 °C 11.1 °C 1026.3 hPa SSW 1.6 km/h 6.4 km/h 70% 0 mm
05:24 16.6 °C 10.9 °C 1026.3 hPa SSW 1.6 km/h 6.4 km/h 69% 0 mm
05:29 16.6 °C 11.1 °C 1026.3 hPa SSW 1.6 km/h 4.8 km/h 70% 0 mm
05:34 16.6 °C 11.1 °C 1026 hPa Calm   8 km/h 70% 0 mm
05:39 16.7 °C 11.2 °C 1026 hPa Calm   11.3 km/h 70% 0 mm
05:44 16.9 °C 11.2 °C 1026 hPa SW 4.8 km/h 6.4 km/h 69% 0 mm
05:49 17.1 °C 11.1 °C 1026 hPa SSW 3.2 km/h 6.4 km/h 68% 0 mm
05:54 17.3 °C 11.3 °C 1026 hPa SW 1.6 km/h 6.4 km/h 68% 0 mm
05:59 17.5 °C 11.3 °C 1026 hPa Calm   9.7 km/h 67% 0 mm
06:04 17.5 °C 11.3 °C 1025.6 hPa Calm   8 km/h 67% 0 mm
06:09 17.6 °C 11.2 °C 1025.6 hPa SSW 1.6 km/h 6.4 km/h 66% 0 mm
06:14 17.7 °C 11.4 °C 1025.6 hPa SSW 4.8 km/h 9.7 km/h 67% 0 mm
06:19 17.7 °C 11.4 °C 1025.6 hPa SSW 3.2 km/h 11.3 km/h 67% 0 mm
06:24 17.7 °C 11.3 °C 1025.6 hPa SW 3.2 km/h 11.3 km/h 66% 0 mm
06:29 17.7 °C 11.2 °C 1025.6 hPa SSW 3.2 km/h 8 km/h 66% 0 mm
06:34 17.7 °C 11.4 °C 1025.6 hPa SW 3.2 km/h 11.3 km/h 67% 0 mm
06:39 17.6 °C 11.4 °C 1025.6 hPa SW 3.2 km/h 11.3 km/h 67% 0 mm
06:44 17.6 °C 11.4 °C 1025.6 hPa SSW 4.8 km/h 6.4 km/h 67% 0 mm
06:49 17.6 °C 11.3 °C 1025.6 hPa SSW 3.2 km/h 8 km/h 67% 0 mm
06:54 17.6 °C 11.4 °C 1025.6 hPa SW 4.8 km/h 6.4 km/h 67% 0 mm
06:59 17.6 °C 11.6 °C 1025.6 hPa WSW 4.8 km/h 8 km/h 68% 0 mm
07:04 17.7 °C 11.7 °C 1025.6 hPa SW 1.6 km/h 11.3 km/h 68% 0 mm
07:09 17.7 °C 11.7 °C 1025.3 hPa SW 1.6 km/h 8 km/h 68% 0 mm
07:14 17.7 °C 11.7 °C 1025.3 hPa SW 3.2 km/h 8 km/h 68% 0 mm
07:19 17.7 °C 11.7 °C 1025.3 hPa SSW 4.8 km/h 11.3 km/h 68% 0 mm
07:24 17.7 °C 11.7 °C 1025.3 hPa SSW 4.8 km/h 11.3 km/h 68% 0 mm
07:29 17.8 °C 11.8 °C 1025.3 hPa SSW 3.2 km/h 11.3 km/h 68% 0 mm
07:34 17.8 °C 11.8 °C 1025.3 hPa SSW 3.2 km/h 11.3 km/h 68% 0 mm
07:39 17.9 °C 11.9 °C 1025.3 hPa SW 3.2 km/h 8 km/h 68% 0 mm
07:44 17.9 °C 12.2 °C 1025.3 hPa South 3.2 km/h 9.7 km/h 69% 0 mm
07:49 18 °C 12.2 °C 1025.3 hPa SSW 8 km/h 11.3 km/h 69% 0 mm
07:54 18.1 °C 12.3 °C 1025.3 hPa SSW 3.2 km/h 11.3 km/h 69% 0 mm
07:59 18.2 °C 12.4 °C 1025.3 hPa SW 3.2 km/h 12.9 km/h 69% 0 mm
08:04 18.4 °C 12.6 °C 1024.9 hPa West 3.2 km/h 11.3 km/h 69% 0 mm
08:09 18.6 °C 12.8 °C 1024.9 hPa SSW 9.7 km/h 14.5 km/h 69% 0 mm
08:14 18.8 °C 12.7 °C 1024.9 hPa WSW 8 km/h 17.7 km/h 68% 0 mm
08:19 19.1 °C 13.1 °C 1024.9 hPa SW 8 km/h 17.7 km/h 68% 0 mm
08:24 19.3 °C 13.1 °C 1024.9 hPa SW 8 km/h 16.1 km/h 67% 0 mm
08:29 19.6 °C 13.3 °C 1024.9 hPa SW 8 km/h 16.1 km/h 67% 0 mm
08:34 19.7 °C 13.2 °C 1024.9 hPa SW 6.4 km/h 17.7 km/h 66% 0 mm
08:39 20.2 °C 13.4 °C 1024.9 hPa WSW 12.9 km/h 19.3 km/h 65% 0 mm
08:44 20.6 °C 13.7 °C 1024.9 hPa SW 4.8 km/h 17.7 km/h 65% 0 mm
08:49 20.8 °C 13.8 °C 1024.9 hPa SW 8 km/h 17.7 km/h 64% 0 mm
08:54 21 °C 13.9 °C 1024.9 hPa SW 8 km/h 17.7 km/h 64% 0 mm
08:59 21.2 °C 13.8 °C 1024.6 hPa SW 8 km/h 14.5 km/h 63% 0 mm
09:04 21.3 °C 14 °C 1024.6 hPa SW 8 km/h 16.1 km/h 63% 0 mm
09:09 21.6 °C 13.9 °C 1024.6 hPa SW 16.1 km/h 19.3 km/h 62% 0 mm
09:14 21.7 °C 14.1 °C 1024.6 hPa SW 11.3 km/h 24.1 km/h 62% 0 mm
09:19 21.9 °C 14.1 °C 1024.9 hPa WSW 8 km/h 24.1 km/h 61% 0 mm
09:24 22.1 °C 14.2 °C 1024.9 hPa SSW 11.3 km/h 19.3 km/h 61% 0 mm
09:29 22.2 °C 14.3 °C 1024.9 hPa West 6.4 km/h 16.1 km/h 61% 0 mm
09:34 22.2 °C 14.3 °C 1024.6 hPa WSW 3.2 km/h 27.4 km/h 61% 0 mm
09:39 22.3 °C 14.2 °C 1024.6 hPa SW 9.7 km/h 20.9 km/h 60% 0 mm
09:44 22.6 °C 14.4 °C 1024.6 hPa WSW 14.5 km/h 19.3 km/h 60% 0 mm
09:49 22.3 °C 14.2 °C 1024.6 hPa SW 9.7 km/h 22.5 km/h 60% 0 mm
09:54 22.3 °C 14.4 °C 1024.9 hPa SW 11.3 km/h 24.1 km/h 61% 0 mm
09:59 22.2 °C 14.6 °C 1024.6 hPa West 3.2 km/h 16.1 km/h 62% 0 mm
10:04 22.1 °C 14.4 °C 1024.6 hPa SW 11.3 km/h 20.9 km/h 62% 0 mm
10:14 22.2 °C 14.6 °C 1024.6 hPa WSW 9.7 km/h 22.5 km/h 62% 0 mm
10:19 22.2 °C 14.6 °C 1024.6 hPa SW 9.7 km/h 22.5 km/h 62% 0 mm
10:24 22.2 °C 14.6 °C 1024.6 hPa SW 8 km/h 17.7 km/h 62% 0 mm
10:29 22.2 °C 14.6 °C 1024.3 hPa SW 9.7 km/h 17.7 km/h 62% 0 mm
10:34 22.3 °C 14.7 °C 1024.3 hPa West 8 km/h 19.3 km/h 62% 0 mm
10:39 22.3 °C 14.7 °C 1023.9 hPa SSW 8 km/h 25.7 km/h 62% 0 mm
10:44 22.7 °C 15.3 °C 1023.9 hPa SW 11.3 km/h 25.7 km/h 63% 0 mm
10:49 23.4 °C 15.4 °C 1023.9 hPa SW 11.3 km/h 24.1 km/h 61% 0 mm
10:54 23.7 °C 15.4 °C 1023.9 hPa SW 11.3 km/h 24.1 km/h 60% 0 mm
10:59 23.9 °C 15.7 °C 1023.9 hPa WSW 4.8 km/h 24.1 km/h 60% 0 mm
11:04 24.3 °C 15.8 °C 1023.9 hPa West 6.4 km/h 35.4 km/h 59% 0 mm
11:09 24.2 °C 15.4 °C 1023.6 hPa SSW 12.9 km/h 24.1 km/h 58% 0 mm
11:14 24.2 °C 15.7 °C 1023.6 hPa WSW 14.5 km/h 22.5 km/h 59% 0 mm
11:19 24.2 °C 15.9 °C 1023.6 hPa SW 11.3 km/h 30.6 km/h 60% 0 mm
11:24 24.4 °C 15.8 °C 1023.6 hPa SW 11.3 km/h 30.6 km/h 59% 0 mm
11:29 24.3 °C 15.8 °C 1023.6 hPa SW 9.7 km/h 22.5 km/h 59% 0 mm
11:34 24.4 °C 16.2 °C 1023.2 hPa WSW 20.9 km/h 29 km/h 60% 0 mm
11:39 24.6 °C 16 °C 1023.6 hPa West 16.1 km/h 22.5 km/h 59% 0 mm
11:49 24.7 °C 16.4 °C 1023.2 hPa SW 16.1 km/h 32.2 km/h 60% 0 mm
11:54 25 °C 16.7 °C 1022.9 hPa SW 14.5 km/h 27.4 km/h 60% 0 mm
11:59 25.2 °C 16.6 °C 1022.9 hPa SW 14.5 km/h 27.4 km/h 59% 0 mm
12:04 25.1 °C 16.5 °C 1022.6 hPa SW 19.3 km/h 27.4 km/h 59% 0 mm
12:09 25.2 °C 16.6 °C 1022.6 hPa WSW 16.1 km/h 30.6 km/h 59% 0 mm
12:14 25.1 °C 16.6 °C 1022.6 hPa SSW 11.3 km/h 33.8 km/h 59% 0 mm
12:19 24.9 °C 16.3 °C 1022.6 hPa WSW 16.1 km/h 29 km/h 59% 0 mm
12:24 24.8 °C 16.6 °C 1022.6 hPa West 11.3 km/h 22.5 km/h 60% 0 mm
12:29 24.8 °C 16.6 °C 1022.6 hPa SSW 17.7 km/h 32.2 km/h 60% 0 mm
12:34 24.7 °C 16.7 °C 1022.2 hPa SW 25.7 km/h 27.4 km/h 61% 0 mm
12:39 24.8 °C 16.7 °C 1021.9 hPa WSW 19.3 km/h 30.6 km/h 61% 0 mm
12:44 24.7 °C 16.9 °C 1022.2 hPa SW 14.5 km/h 30.6 km/h 62% 0 mm
12:49 24.6 °C 16.8 °C 1021.9 hPa SW 14.5 km/h 30.6 km/h 62% 0 mm
12:54 24.8 °C 16.8 °C 1021.9 hPa SW 14.5 km/h 30.6 km/h 61% 0 mm
12:59 24.7 °C 16.9 °C 1021.9 hPa WSW 14.5 km/h 32.2 km/h 62% 0 mm
13:04 24.6 °C 17.1 °C 1021.9 hPa WSW 14.5 km/h 32.2 km/h 63% 0 mm
13:09 24.4 °C 17.1 °C 1021.9 hPa West 16.1 km/h 30.6 km/h 64% 0 mm
13:14 24.1 °C 17.1 °C 1021.9 hPa WNW 22.5 km/h 29 km/h 65% 0 mm
13:19 24 °C 17.3 °C 1021.9 hPa SW 17.7 km/h 27.4 km/h 66% 0 mm
13:24 24.1 °C 17.1 °C 1021.9 hPa West 8 km/h 29 km/h 65% 0 mm
13:29 24.1 °C 17.3 °C 1021.6 hPa SW 14.5 km/h 27.4 km/h 66% 0 mm
13:34 23.9 °C 17.2 °C 1021.6 hPa WSW 16.1 km/h 32.2 km/h 66% 0 mm
13:39 23.7 °C 17.4 °C 1021.9 hPa WSW 14.5 km/h 30.6 km/h 68% 0 mm
13:44 23.6 °C 17.3 °C 1021.9 hPa WSW 14.5 km/h 30.6 km/h 68% 0 mm
13:49 23.5 °C 17.3 °C 1021.6 hPa WSW 16.1 km/h 35.4 km/h 68% 0 mm
13:54 23.6 °C 17.6 °C 1021.6 hPa WSW 16.1 km/h 35.4 km/h 69% 0 mm
13:59 23.5 °C 17.5 °C 1021.6 hPa WSW 14.5 km/h 33.8 km/h 69% 0 mm
14:04 23.5 °C 17.5 °C 1021.2 hPa WSW 16.1 km/h 29 km/h 69% 0 mm
14:09 23.4 °C 17.4 °C 1021.2 hPa SW 9.7 km/h 30.6 km/h 69% 0 mm
14:14 23.3 °C 17.5 °C 1021.2 hPa WSW 16.1 km/h 35.4 km/h 70% 0 mm
14:19 23.1 °C 17.3 °C 1021.2 hPa WSW 16.1 km/h 35.4 km/h 70% 0 mm
14:24 22.9 °C 17.2 °C 1021.2 hPa WNW 12.9 km/h 32.2 km/h 70% 0 mm
14:29 22.7 °C 17.6 °C 1021.6 hPa WSW 14.5 km/h 32.2 km/h 73% 0.51 mm
14:34 21.6 °C 17.2 °C 1021.2 hPa WSW 6.4 km/h 32.2 km/h 76% 0.51 mm
14:39 20.7 °C 17.2 °C 1021.6 hPa WSW 11.3 km/h 22.5 km/h 80% 0.51 mm
14:44 20.4 °C 17.4 °C 1021.2 hPa WSW 12.9 km/h 22.5 km/h 83% 0.51 mm
14:49 20.4 °C 17.4 °C 1020.9 hPa WSW 11.3 km/h 22.5 km/h 83% 0.51 mm
14:54 20.5 °C 17.5 °C 1020.9 hPa WSW 9.7 km/h 19.3 km/h 83% 0.76 mm
14:59 20.6 °C 17.6 °C 1020.9 hPa SW 6.4 km/h 19.3 km/h 83% 0.76 mm
15:04 20.8 °C 17.6 °C 1020.9 hPa West 16.1 km/h 22.5 km/h 82% 0.76 mm
15:14 20.7 °C 17.3 °C 1020.5 hPa SW 11.3 km/h 27.4 km/h 81% 0.76 mm
15:19 20.6 °C 17.4 °C 1020.5 hPa WSW 11.3 km/h 27.4 km/h 82% 0.76 mm
15:24 20.6 °C 17.2 °C 1020.5 hPa WSW 11.3 km/h 22.5 km/h 81% 0.76 mm
15:29 20.7 °C 17.3 °C 1020.5 hPa SW 11.3 km/h 22.5 km/h 81% 0.25 mm
15:34 20.8 °C 17.4 °C 1020.2 hPa South 14.5 km/h 20.9 km/h 81% 0.25 mm
15:39 20.8 °C 17.4 °C 1020.2 hPa WSW 6.4 km/h 33.8 km/h 81% 0.25 mm
15:44 20.8 °C 17.6 °C 1020.2 hPa SW 14.5 km/h 33.8 km/h 82% 1.02 mm
15:49 20.6 °C 17.6 °C 1020.5 hPa SW 12.9 km/h 43.5 km/h 83% 1.27 mm
15:54 20.3 °C 17.6 °C 1020.2 hPa SW 20.9 km/h 32.2 km/h 84% 1.27 mm
16:04 20.2 °C 17.8 °C 1020.2 hPa WSW 20.9 km/h 29 km/h 86% 1.27 mm
16:09 20.3 °C 17.8 °C 1019.9 hPa WSW 16.1 km/h 24.1 km/h 86% 1.52 mm
16:14 20.3 °C 17.9 °C 1019.9 hPa WSW 11.3 km/h 24.1 km/h 86% 1.52 mm
16:19 20.4 °C 18 °C 1019.9 hPa SW 9.7 km/h 22.5 km/h 86% 1.52 mm
16:24 20.6 °C 17.9 °C 1019.9 hPa SW 9.7 km/h 24.1 km/h 85% 1.52 mm
16:34 20.9 °C 18.1 °C 1019.9 hPa SW 11.3 km/h 22.5 km/h 84% 1.52 mm
16:39 21.2 °C 18 °C 1019.9 hPa SW 11.3 km/h 24.1 km/h 82% 1.52 mm
16:49 21.7 °C 18.3 °C 1019.5 hPa SSW 12.9 km/h 32.2 km/h 81% 0.51 mm
16:54 21.8 °C 18.4 °C 1019.5 hPa West 14.5 km/h 32.2 km/h 81% 0.25 mm
16:59 21.7 °C 18.1 °C 1019.5 hPa West 6.4 km/h 20.9 km/h 80% 0.25 mm
17:04 21.7 °C 18.1 °C 1019.5 hPa SSW 8 km/h 24.1 km/h 80% 0.25 mm
17:09 21.6 °C 18 °C 1019.5 hPa SW 30.6 km/h 30.6 km/h 80% 0 mm
17:14 21.6 °C 18.2 °C 1019.2 hPa WSW 14.5 km/h 33.8 km/h 81% 0 mm
17:19 21.3 °C 18.1 °C 1019.5 hPa SW 12.9 km/h 33.8 km/h 82% 0 mm
17:24 21.2 °C 18.2 °C 1019.2 hPa WSW 11.3 km/h 25.7 km/h 83% 0 mm
17:29 21.2 °C 18.2 °C 1019.5 hPa WSW 12.9 km/h 27.4 km/h 83% 0 mm
17:34 21.2 °C 18.2 °C 1019.2 hPa WSW 12.9 km/h 27.4 km/h 83% 0 mm
17:39 21.3 °C 18.3 °C 1019.5 hPa WSW 11.3 km/h 32.2 km/h 83% 0 mm
17:44 21.4 °C 18.2 °C 1019.2 hPa WSW 22.5 km/h 27.4 km/h 82% 0 mm
17:49 21.4 °C 18.2 °C 1019.2 hPa WSW 12.9 km/h 32.2 km/h 82% 0 mm
17:54 21.4 °C 18.4 °C 1019.2 hPa WSW 12.9 km/h 32.2 km/h 83% 0 mm
17:59 21.3 °C 18.3 °C 1019.2 hPa WSW 20.9 km/h 22.5 km/h 83% 0 mm
18:04 21.2 °C 18.2 °C 1019.2 hPa WSW 6.4 km/h 27.4 km/h 83% 0 mm
18:14 21.3 °C 18.3 °C 1019.5 hPa SW 14.5 km/h 30.6 km/h 83% 0 mm
18:19 21.3 °C 18.3 °C 1019.2 hPa SW 16.1 km/h 32.2 km/h 83% 0 mm
18:24 21.3 °C 18.1 °C 1019.2 hPa WSW 14.5 km/h 32.2 km/h 82% 0 mm
18:29 21.4 °C 18.2 °C 1019.2 hPa WSW 14.5 km/h 30.6 km/h 82% 0 mm
18:34 21.4 °C 18.2 °C 1019.2 hPa WSW 24.1 km/h 37 km/h 82% 0 mm
18:39 21.5 °C 18.3 °C 1019.2 hPa West 9.7 km/h 27.4 km/h 82% 0 mm
18:44 21.5 °C 18.3 °C 1019.2 hPa WSW 8 km/h 32.2 km/h 82% 0 mm
18:49 21.4 °C 18.2 °C 1018.8 hPa SW 14.5 km/h 38.6 km/h 82% 0 mm
18:54 21.5 °C 18.3 °C 1018.8 hPa SW 16.1 km/h 38.6 km/h 82% 0 mm
18:59 21.4 °C 18.2 °C 1019.2 hPa WSW 16.1 km/h 30.6 km/h 82% 0 mm
19:04 21.4 °C 18.2 °C 1019.2 hPa WSW 16.1 km/h 33.8 km/h 82% 0 mm
19:09 21.4 °C 18.2 °C 1019.2 hPa WSW 14.5 km/h 33.8 km/h 82% 0 mm
19:14 21.4 °C 18.2 °C 1019.2 hPa WSW 14.5 km/h 32.2 km/h 82% 0 mm
19:19 21.4 °C 18.4 °C 1018.8 hPa SW 17.7 km/h 27.4 km/h 83% 0 mm
19:24 21.4 °C 18.4 °C 1018.8 hPa WSW 22.5 km/h 33.8 km/h 83% 0 mm
19:29 21.5 °C 18.5 °C 1018.8 hPa NW 14.5 km/h 25.7 km/h 83% 0 mm
19:34 21.6 °C 18.3 °C 1018.8 hPa SW 24.1 km/h 30.6 km/h 82% 0 mm
19:39 21.6 °C 18.4 °C 1018.8 hPa WSW 17.7 km/h 24.1 km/h 82% 0 mm
19:44 21.7 °C 18.5 °C 1019.2 hPa WSW 19.3 km/h 27.4 km/h 82% 0 mm
19:49 21.8 °C 18.4 °C 1018.8 hPa WSW 14.5 km/h 38.6 km/h 81% 0 mm
19:54 21.9 °C 18.5 °C 1019.2 hPa WSW 14.5 km/h 38.6 km/h 81% 0 mm
19:59 21.8 °C 18.6 °C 1019.2 hPa WSW 14.5 km/h 38.6 km/h 82% 0 mm
20:09 21.8 °C 18.6 °C 1019.2 hPa WSW 14.5 km/h 32.2 km/h 82% 0 mm
20:14 21.7 °C 18.5 °C 1019.2 hPa SW 12.9 km/h 27.4 km/h 82% 0 mm
20:19 21.7 °C 18.4 °C 1019.2 hPa WSW 14.5 km/h 27.4 km/h 82% 0 mm
20:24 21.7 °C 18.4 °C 1019.2 hPa WSW 12.9 km/h 29 km/h 82% 0 mm
20:29 21.6 °C 18.4 °C 1019.2 hPa WSW 11.3 km/h 29 km/h 82% 0 mm
20:34 21.5 °C 18.5 °C 1019.2 hPa WSW 12.9 km/h 25.7 km/h 83% 0 mm
20:39 21.4 °C 18.4 °C 1019.2 hPa SW 9.7 km/h 19.3 km/h 83% 0 mm
20:44 21.3 °C 18.3 °C 1019.2 hPa WSW 3.2 km/h 19.3 km/h 83% 0 mm
20:49 21.3 °C 18.3 °C 1019.2 hPa WSW 12.9 km/h 29 km/h 83% 0 mm
20:54 21.2 °C 18.4 °C 1019.2 hPa WSW 9.7 km/h 29 km/h 84% 0 mm
20:59 21.2 °C 18.4 °C 1019.2 hPa WSW 9.7 km/h 24.1 km/h 84% 0 mm
21:04 21.2 °C 18.4 °C 1019.2 hPa SSW 11.3 km/h 19.3 km/h 84% 0 mm
21:09 21.2 °C 18.3 °C 1019.2 hPa West 1.6 km/h 14.5 km/h 84% 0 mm
21:14 21.2 °C 18.6 °C 1019.2 hPa SW 12.9 km/h 24.1 km/h 85% 0 mm
21:19 21.2 °C 18.6 °C 1019.2 hPa SW 6.4 km/h 16.1 km/h 85% 0 mm
21:24 21.2 °C 18.6 °C 1019.2 hPa WSW 8 km/h 17.7 km/h 85% 0 mm
21:29 21.1 °C 18.5 °C 1019.2 hPa WSW 8 km/h 19.3 km/h 85% 0 mm
21:34 21.1 °C 18.5 °C 1019.5 hPa WSW 8 km/h 19.3 km/h 85% 0 mm
21:39 21.1 °C 18.5 °C 1019.5 hPa WSW 8 km/h 17.7 km/h 85% 0 mm
21:44 21.1 °C 18.5 °C 1019.9 hPa West 8 km/h 20.9 km/h 85% 0 mm
21:49 20.9 °C 17.9 °C 1019.5 hPa NW 6.4 km/h 17.7 km/h 83% 0 mm
21:54 20.5 °C 17.5 °C 1020.2 hPa WNW 3.2 km/h 19.3 km/h 83% 0 mm
21:59 20.2 °C 17.2 °C 1020.2 hPa NNW 3.2 km/h 12.9 km/h 83% 0 mm
22:04 20 °C 17 °C 1020.5 hPa NW 4.8 km/h 8 km/h 83% 0 mm
22:09 19.7 °C 16.7 °C 1020.2 hPa North 1.6 km/h 12.9 km/h 83% 0 mm
22:14 19.4 °C 16.3 °C 1020.2 hPa North 3.2 km/h 16.1 km/h 82% 0 mm
22:19 19.2 °C 16.3 °C 1020.5 hPa NW 9.7 km/h 12.9 km/h 83% 0 mm
22:29 18.9 °C 16 °C 1020.5 hPa NW 4.8 km/h 12.9 km/h 83% 0 mm
22:34 18.8 °C 16.1 °C 1020.5 hPa NNW 3.2 km/h 11.3 km/h 84% 0 mm
22:39 18.7 °C 15.9 °C 1020.5 hPa NW 1.6 km/h 11.3 km/h 84% 0 mm
22:44 18.6 °C 16 °C 1020.5 hPa North 1.6 km/h 11.3 km/h 85% 0 mm
22:49 18.4 °C 15.8 °C 1020.5 hPa NNW 8 km/h 12.9 km/h 85% 0 mm
22:54 18.2 °C 15.8 °C 1020.5 hPa NNW 3.2 km/h 12.9 km/h 86% 0 mm
22:59 18.1 °C 15.7 °C 1020.5 hPa NNW 3.2 km/h 11.3 km/h 86% 0 mm
23:04 17.9 °C 15.6 °C 1020.5 hPa North 3.2 km/h 9.7 km/h 86% 0 mm
23:09 17.9 °C 15.5 °C 1020.5 hPa NNW 4.8 km/h 8 km/h 86% 0 mm
23:19 17.8 °C 15.6 °C 1020.5 hPa North 3.2 km/h 9.7 km/h 87% 0 mm
23:24 17.7 °C 15.3 °C 1020.5 hPa NW 1.6 km/h 11.3 km/h 86% 0 mm
23:29 17.7 °C 15.6 °C 1020.5 hPa North 1.6 km/h 11.3 km/h 87% 0 mm
23:34 17.7 °C 15.5 °C 1020.9 hPa NNE 1.6 km/h 6.4 km/h 87% 0 mm
23:39 17.6 °C 15.4 °C 1020.9 hPa NNW 1.6 km/h 6.4 km/h 87% 0 mm
23:44 17.6 °C 15.4 °C 1020.9 hPa Calm   8 km/h 87% 0 mm
23:54 17.3 °C 15.2 °C 1021.2 hPa Calm   6.4 km/h 87% 0 mm
23:59 17.2 °C 14.8 °C 1021.2 hPa Calm   6.4 km/h 86% 0 mm
Buffalo, New York, USA
Compliments of Weather Underground - 2.25 mb